Regional Weather Roundup
Issued by NWS

Home | Current Version | Previous Version | Text Only | Print | Product List | Glossary On
Versions: 1 2 3 4 5 6 7 8 9 10 11 12 13 14 15 16 17 18 19 20 21 22 23 24 25 26 27
000
ASUS44 KLIX 211513
RWRLA
LOUISIANA WEATHER ROUNDUP
NATIONAL WEATHER SERVICE NEW ORLEANS LA
1000 AM CDT FRI JUL 21 2017

NOTE: "FAIR" INDICATES FEW OR NO CLOUDS BELOW 12,000 FEET WITH NO
      SIGNIFICANT WEATHER AND/OR OBSTRUCTIONS TO VISIBILITY.
      SKY/WX - SKY CONDITION AND SIGNIFICANT WEATHER.
      TMP - AIR TEMPERATURE.    DP   - DEWPOINT TEMPERATURE.
      RH  - RELATIVE HUMIDITY.  PRES - PRESSURE.
      HX  - HEAT INDEX.         WCI  - WIND CHILL INDEX.

*  THESE STATIONS ARE NOT NWS OR FAA STATIONS AND ARE NOT UNDER
   NWS QUALITY CONTROL.

LAZ040-048-061>063-065-066-069-211600-
SOUTHEAST LOUISIANA

CITY           SKY/WX    TMP DP  RH WIND       PRES   REMARKS
N.O. INTL ARPT PTSUNNY   88  76  67 N6        30.06R HX  99
N.O. LAKEFRONT SUNNY     87  78  74 E3        30.06R HX 100
N.O. DOWNTOWN*   N/A     89  76  65 N6          N/A  HX 100
RESERVE*       FAIR      90  77  67 N5        30.06R HX 103
SLIDELL        MOSUNNY   89  76  65 CALM      30.05R HX 100
BATON ROUGE    MOSUNNY   88  76  67 N6        30.05S HX  99
BOOTHVILLE     NOT AVBL
BELLE CHASSE   PTSUNNY   86  79  79 E5        30.06R HX  99
BOGALUSA*      FAIR      89  75  62 CALM      30.07S HX  99
GALLIANO*      SUNNY     86  76  73 NE6       30.06R HX  96
NEW ROADS*     FAIR      85  78  79 N3        30.05S HX  95
GONZALES*      FAIR      86  77  72 N5        30.04S HX  97
HAMMOND*       MOSUNNY   90  73  58 N5        30.05S HX  98
HOUMA*         SUNNY     88  79  74 N7        30.06R HX 102
PORT FOURCHON* SUNNY     88  77  70 N8        30.06R HX 100

$$

LAZ041-044-053-054-211600-
SOUTHWEST LOUISIANA

CITY           SKY/WX    TMP DP  RH WIND       PRES   REMARKS
LAKE CHARLES   SUNNY     88  77  69 VRB6      30.04F HX 100
LAFAYETTE      SUNNY     89  78  70 NW6       30.04F HX 103
PATTERSON      SUNNY     86  78  77 N5        30.06S HX  98
SALT POINT       N/A     87  79  76 VRB6      30.03F HX 101
NEW IBERIA     MOSUNNY   88  76  67 VRB3      30.05F HX  99
CHENAULT AIRPK MOSUNNY   86  77  74 VRB6      30.05F HX  97

$$

LAZ027-028-211600-
CENTRAL LOUISIANA

CITY           SKY/WX    TMP DP  RH WIND       PRES   REMARKS
FORT POLK      MOSUNNY   85  77  76 NW6       30.05F HX  96
ALEXANDRIA INT MOSUNNY   87  78  74 W5        30.03F HX 100
ALEXANDRIA     SUNNY     90  77  65 CALM      30.05F HX 103

$$

LAZ001-002-211600-
NORTHWEST LOUISIANA

CITY           SKY/WX    TMP DP  RH WIND       PRES   REMARKS
SHREVEPORT     MOSUNNY   89  77  67 NW6       30.04F HX 101
BARKSDALE AFB  SUNNY     89  75  62 NW7       30.04F HX  99
DTN SHREVEPORT SUNNY     89  76  65 NW7       30.04F HX 100

$$

LAZ014-016-211600-
NORTHEAST LOUISIANA

CITY           SKY/WX    TMP DP  RH WIND       PRES   REMARKS
MONROE         SUNNY     90  74  59 W3        30.05F HX  99
TALLULAH       CLOUDY    86  76  71 CALM      30.05F HX  96

$$





USA.gov is the U.S. government's official web portal to all federal, state and local government web resources and services.